Погода в Кайо

Филиппины     10°49′17″N   121°01′58″E
темп.,
°C
ветер,
м/с
пор.,
м/с
влажн.,
%
обл.,
%
осадки,
мм/ч
давл.,
гПа
погр.,
м
8 мая, сб
сб823:00+30всв677799 0.5 1009212
02:00+29св7678100 1.4 1008545
05:00+29св6575100 1.2 1008504
08:00+29св4474100 1.3 1010563
11:00+29ссв327397 0.0 1009460
14:00+29ссв3271100 0.0 1007553
17:00+30св236887 0.0 1007608
20:00+29с347570 0.0 1009450
9 мая, вс
вс923:00+29ссв4576100 1.7 1009303
02:00+29св557658 3.7 1007391
05:00+29в3376100 3.4 1008302
08:00+29ююв3373100 4.9 1010520
11:00+29юв447499 1.1 1010665
14:00+28ююз22725 1.3 1008538
17:00+29з117199 0.0 1007571
20:00+29сз1172100 0.0 1008337
10 мая, пн
пн1023:00+29сз227476 0.0 1009410
02:00+28ссз2377100 5.3 1007133
05:00+28св127197 0.9 1008375
08:00+28св1172100 1.3 1009272
11:00+28с1170100 1.0 1009351
14:00+29з22689 1.1 1007510
17:00+29сз116652 0.0 1007541
20:00+29с127099 0.1 1009371
11 мая, вт
вт1123:00+28ссв1173100 1.5 100959
02:00+28юз1170100 3.1 1007170
05:00+29ю2268100 0.3 1008364
08:00+29юв2268100 0.3 1009451
11:00+29юв116873 0.0 1009437
14:00+29сз2268100 0.0 1007585
17:00+29сз226999 0.0 1006664
20:00+29с227194 0.0 1008444
12 мая, ср
ср1223:00+28ссв2376100 3.2 1008153
02:00+28всв1272100 5.5 1007120
05:00+29вюв1271100 0.5 1007343
08:00+29ю1170100 0.5 1008354
11:00+29ссз127018 0.0 1008581
14:00+29ссв337096 0.1 1006753
17:00+30св3469100 0.0 1006736
20:00+29с3374100 0.1 1007443